This is the latest recevied weather packets stored in our database for station/object WA9SDJ-13. If no packets are shown the sender has not sent any weather packets the latest 10 day(s).
| Time | Temp. | Humidity | Pressure | Rain* | Wind** | Luminosity | Snow |
|---|---|---|---|---|---|---|---|
| 1778184722 | 18.33° C | 40% | 1013.4 hPa | 0 mm | - | 848 W/m² | - |
| 1778184662 | 18.33° C | 39% | 1013.4 hPa | 0 mm | - | 848 W/m² | - |
| 1778184602 | 18.33° C | 45% | 1013.4 hPa | 0 mm | - | 849 W/m² | - |
| 1778184542 | 18.33° C | 43% | 1013.4 hPa | 0 mm | - | 856 W/m² | - |
| 1778184482 | 18.33° C | 39% | 1013.4 hPa | 0 mm | - | 860 W/m² | - |
| 1778184422 | 18.33° C | 40% | 1013.6 hPa | 0 mm | - | 869 W/m² | - |
| 1778184362 | 18.33° C | 43% | 1013.6 hPa | 0 mm | - | 891 W/m² | - |
| 1778184302 | 18.33° C | 41% | 1013.6 hPa | 0 mm | - | 902 W/m² | - |
| 1778184242 | 18.33° C | 42% | 1013.6 hPa | 0 mm | - | 909 W/m² | - |
| 1778184182 | 18.33° C | 43% | 1013.6 hPa | 0 mm | - | 900 W/m² | - |
| 1778184122 | 17.78° C | 43% | 1013.6 hPa | 0 mm | - | 884 W/m² | - |
| 1778184063 | 17.78° C | 39% | 1013.6 hPa | 0 mm | - | 874 W/m² | - |
| 1778184005 | 17.78° C | 41% | 1013.6 hPa | 0 mm | - | 876 W/m² | - |
| 1778183942 | 17.78° C | 40% | 1013.6 hPa | 0 mm | - | 874 W/m² | - |
| 1778183882 | 17.78° C | 44% | 1013.7 hPa | 0 mm | - | 867 W/m² | - |
| 1778183822 | 17.78° C | 40% | 1013.7 hPa | 0 mm | - | 869 W/m² | - |
| 1778183763 | 17.78° C | 39% | 1013.7 hPa | 0 mm | - | 870 W/m² | - |
| 1778183703 | 17.78° C | 40% | 1013.8 hPa | 0 mm | - | 870 W/m² | - |
| 1778183643 | 17.78° C | 40% | 1013.8 hPa | 0 mm | - | 863 W/m² | - |
| 1778183582 | 17.78° C | 41% | 1013.8 hPa | 0 mm | - | 870 W/m² | - |
| 1778183522 | 17.78° C | 42% | 1013.7 hPa | 0 mm | - | 877 W/m² | - |
| 1778183460 | 17.78° C | 39% | 1013.7 hPa | 0 mm | - | 884 W/m² | - |
| 1778183399 | 17.78° C | 42% | 1013.7 hPa | 0 mm | - | 893 W/m² | - |
| 1778183338 | 17.78° C | 40% | 1013.7 hPa | 0 mm | - | 906 W/m² | - |
| 1778183276 | 17.78° C | 40% | 1013.7 hPa | 0 mm | - | 909 W/m² | - |
* Rain latest hour (hover to see other rain measurements)
** Current wind speed in m/s (hover to see current wind gust speed)